KB9YVI-11 Weather Reports


time (UTC)temp
C
wind
direction
speed
KPH
gust
KPH
rain 1hr
cm
rain 24hr
cm
rain mn
cm
humidity
%
barometer
mb
20260905173141 32 222 3.2 9.7 0.00 0.00 0.00 81
20260905172641 31 185 3.2 9.7 0.00 0.00 0.00 82
20260905172140 31 171 4.8 12.9 0.00 0.00 0.00 81
20260905171641 31 167 12.9 12.9 0.00 0.00 0.00 82
20260905171141 31 133 6.4 12.9 0.00 0.00 0.00 81
20260905170141 31 206 8.0 17.7 0.00 0.00 0.00 81
20260905165641 31 14 12.9 14.5 0.00 0.00 0.00 81
20260905164641 31 184 6.4 14.5 0.00 0.00 0.00 80
20260905164141 31 192 0.0 11.3 0.00 0.00 0.00 80
20260905163142 31 198 3.2 11.3 0.00 0.00 0.00 80
20260905162642 31 146 4.8 8.0 0.00 0.00 0.00 80
20260905162140 31 115 3.2 14.5 0.00 0.00 0.00 79
20260905161643 31 209 1.6 12.9 0.00 0.00 0.00 82
20260905161143 31 139 9.7 14.5 0.00 0.00 0.00 81
20260905160642 30 130 12.9 17.7 0.00 0.00 0.00 79
20260905160142 30 142 9.7 17.7 0.00 0.00 0.00 80
20260905155642 30 150 8.0 16.1 0.00 0.00 0.00 81
20260905155142 30 142 9.7 22.5 0.00 0.00 0.00 82
20260905153642 29 142 8.0 12.9 0.00 0.00 0.00 88
20260905153142 28 149 4.8 11.3 0.00 0.00 0.00 87
20260905152642 28 140 4.8 14.5 0.00 0.00 0.00 89
20260905152141 28 102 11.3 16.1 0.00 0.00 0.00 88
20260905151642 28 153 6.4 19.3 0.00 0.00 0.00 89
20260905151142 28 157 3.2 19.3 0.00 0.00 0.00 89
20260905150642 28 222 3.2 14.5 0.00 0.00 0.00 91
20260905145642 27 144 12.9 17.7 0.00 0.00 0.00 92
20260905145142 27 139 9.7 24.1 0.00 0.00 0.00 92
20260905144642 27 98 4.8 22.5 0.00 0.00 0.00 93
20260905144143 27 130 11.3 19.3 0.00 0.00 0.00 93
20260905143642 27 109 8.0 17.7 0.00 0.00 0.00 94
20260905143142 27 108 8.0 16.1 0.00 0.00 0.00 93
20260905142642 27 147 11.3 17.7 0.00 0.00 0.00 92
20260905142141 27 146 9.7 16.1 0.00 0.00 0.00 93
20260905141642 27 137 4.8 19.3 0.00 0.00 0.00 95
20260905141142 26 120 14.5 24.1 0.00 0.00 0.00 95
20260905140642 26 181 11.3 25.7 0.00 0.00 0.00 95
20260905140142 26 104 8.0 14.5 0.00 0.00 0.00 96
20260905135142 26 178 8.0 24.1 0.00 0.00 0.00 98
20260905134642 26 133 6.4 19.3 0.00 0.00 0.00 99
20260905134142 25 105 11.3 25.7 0.00 0.00 0.00 99
20260905133142 25 118 9.7 20.9 0.00 0.00 0.00 100
20260905132642 25 125 9.7 20.9 0.00 0.00 0.00 100
20260905132141 25 109 17.7 24.1 0.00 0.00 0.00 100
20260905131642 25 81 6.4 12.9 0.00 0.00 0.00 100
20260905131142 24 60 3.2 12.9 0.00 0.00 0.00 100
20260905130642 24 104 8.0 19.3 0.00 0.00 0.00 100
20260905130142 24 95 11.3 19.3 0.00 0.00 0.00 100
20260905125642 23 60 0.0 12.9 0.00 0.00 0.00 100
20260905124642 23 53 0.0 16.1 0.00 0.00 0.00 100
20260905124142 23 140 8.0 16.1 0.00 0.00 0.00 100
20260905123642 23 81 6.4 9.7 0.00 0.00 0.00 100
20260905123142 23 50 0.0 12.9 0.00 0.00 0.00 100
20260905122642 23 32 3.2 17.7 0.00 0.00 0.00 100
20260905122141 23 85 6.4 6.4 0.00 0.00 0.00 100
20260905121642 23 184 0.0 0.0 0.00 0.00 0.00 100
20260905121142 23 184 0.0 0.0 0.00 0.00 0.00 100
20260905120142 23 184 0.0 0.0 0.00 0.00 0.00 100
20260905115642 23 184 0.0 0.0 0.00 0.00 0.00 100
20260905115142 23 184 0.0 0.0 0.00 0.00 0.00 100
20260905114642 23 184 0.0 0.0 0.00 0.00 0.00 100
20260905114142 23 184 0.0 0.0 0.00 0.00 0.00 100
20260905113142 23 184 0.0 0.0 0.00 0.00 0.00 100
20260905112642 23 184 0.0 0.0 0.00 0.00 0.00 100
20260905112141 23 184 0.0 0.0 0.00 0.00 0.00 100
20260905111142 23 184 0.0 0.0 0.00 0.00 0.00 100
20260905110642 23 184 0.0 0.0 0.00 0.00 0.00 100
20260905110142 23 184 0.0 0.0 0.00 0.00 0.00 100
20260905105642 23 184 0.0 0.0 0.00 0.00 0.00 100
20260905105143 23 184 0.0 0.0 0.00 0.00 0.00 100
20260905104643 23 184 0.0 0.0 0.00 0.00 0.00 100
20260905104143 23 184 0.0 0.0 0.00 0.00 0.00 100
20260905103643 23 184 0.0 0.0 0.00 0.00 0.00 100
20260905103143 23 184 0.0 0.0 0.00 0.00 0.00 100
20260905102644 23 184 0.0 0.0 0.00 0.00 0.00 100
20260905102141 23 184 0.0 0.0 0.00 0.00 0.00 100
20260905101643 23 184 0.0 0.0 0.00 0.00 0.00 100
20260905101143 23 184 0.0 0.0 0.00 0.00 0.00 100
20260905100143 23 184 0.0 0.0 0.00 0.00 0.00 100
20260905095143 23 184 0.0 0.0 0.00 0.00 0.00 100
20260905094643 24 184 0.0 0.0 0.00 0.00 0.00 100
20260905094143 24 184 0.0 0.0 0.00 0.00 0.00 100
20260905093643 24 184 0.0 0.0 0.00 0.00 0.00 100
20260905092643 24 184 0.0 0.0 0.00 0.00 0.00 100
20260905092142 24 184 0.0 0.0 0.00 0.00 0.00 100
20260905091643 24 184 0.0 0.0 0.00 0.00 0.00 100
20260905090143 24 184 0.0 0.0 0.00 0.00 0.00 100
20260905085643 24 184 0.0 0.0 0.00 0.00 0.00 100
20260905084643 24 184 0.0 0.0 0.00 0.00 0.00 100
20260905084143 24 184 0.0 0.0 0.00 0.00 0.00 100
20260905083643 24 184 0.0 0.0 0.00 0.00 0.00 100
20260905083143 24 184 0.0 0.0 0.00 0.00 0.00 100
20260905082643 24 184 0.0 0.0 0.00 0.00 0.00 100
20260905082142 24 184 0.0 0.0 0.00 0.00 0.00 100
20260905081643 24 184 0.0 3.2 0.00 0.00 0.00 100
20260905080643 24 220 0.0 4.8 0.00 0.00 0.00 100
20260905080143 23 216 1.6 4.8 0.00 0.00 0.00 100
20260905075643 23 219 0.0 1.6 0.00 0.00 0.00 100
20260905075143 23 239 0.0 4.8 0.00 0.00 0.00 100
20260905073143 24 215 0.0 0.0 0.00 0.00 0.00 100
20260905072643 24 215 0.0 0.0 0.00 0.00 0.00 100
20260905072142 24 215 0.0 0.0 0.00 0.00 0.00 100
20260905070143 24 215 0.0 0.0 0.00 0.00 0.00 100
20260905065643 24 215 0.0 0.0 0.00 0.00 0.00 100
20260905065143 24 215 0.0 0.0 0.00 0.00 0.00 100
20260905064643 24 215 0.0 0.0 0.00 0.00 0.00 100
20260905064143 24 215 0.0 0.0 0.00 0.00 0.00 100
20260905062142 24 215 0.0 0.0 0.00 0.00 0.00 100
20260905061643 24 215 0.0 0.0 0.00 0.00 0.00 100
20260905061143 24 215 0.0 0.0 0.00 0.00 0.00 100
20260905060143 25 215 0.0 0.0 0.00 0.00 0.00 100
20260905055143 25 215 0.0 0.0 0.00 0.00 0.00 100
20260905054643 25 215 0.0 0.0 0.00 0.00 0.00 100
20260905054143 25 215 0.0 0.0 0.00 0.00 0.00 100
20260905053643 25 215 0.0 0.0 0.00 0.00 0.00 100
20260905053144 25 215 0.0 0.0 0.00 0.00 0.00 100
20260905052643 25 215 0.0 0.0 0.00 0.00 0.00 100
20260905052142 25 215 0.0 0.0 0.00 0.00 0.00 100
20260905051644 25 215 0.0 0.0 0.00 0.00 0.00 100
20260905051144 25 215 0.0 0.0 0.00 0.00 0.00 100
20260905050644 25 215 0.0 0.0 0.00 0.00 0.00 100
20260905050144 25 215 0.0 0.0 0.00 0.00 0.00 100
20260905045644 25 215 0.0 0.0 0.00 0.00 0.00 100
20260905045144 25 215 0.0 0.0 0.00 0.00 0.00 100
20260905044144 25 215 0.0 0.0 0.00 0.00 0.00 100
20260905043144 25 215 0.0 0.0 0.00 0.00 0.00 100
20260905042142 25 215 0.0 0.0 0.00 0.00 0.00 100
20260905041644 25 215 0.0 0.0 0.00 0.00 0.00 100
20260905040644 25 215 0.0 0.0 0.00 0.00 0.00 100
20260905040144 25 215 0.0 0.0 0.00 0.00 0.00 100
20260905035144 25 215 0.0 0.0 0.00 0.00 0.00 100
20260905035126 25 215 0.0 0.0 0.00 0.00 0.00 100
20260905034644 25 215 0.0 0.0 0.00 0.00 0.00 100
20260905034144 25 215 0.0 0.0 0.00 0.00 0.00 100
20260905033644 25 215 0.0 0.0 0.00 0.00 0.00 100
20260905033144 25 215 0.0 0.0 0.00 0.00 0.00 100
20260905032644 25 215 0.0 0.0 0.00 0.00 0.00 100
20260905032143 26 215 0.0 0.0 0.00 0.00 0.00 100
20260905031644 26 215 0.0 0.0 0.00 0.00 0.00 100
20260905031144 26 215 0.0 0.0 0.00 0.00 0.00 100
20260905030644 26 215 0.0 0.0 0.00 0.00 0.00 100
20260905030144 26 215 0.0 0.0 0.00 0.00 0.00 100
20260905025644 26 215 0.0 0.0 0.00 0.00 0.00 100
20260905025144 26 215 0.0 0.0 0.00 0.00 0.00 100
20260905024644 26 215 0.0 0.0 0.00 0.00 0.00 100
20260905024144 26 215 0.0 0.0 0.00 0.00 0.00 100
20260905023644 26 215 0.0 0.0 0.00 0.00 0.00 100
20260905022644 26 215 0.0 0.0 0.00 0.00 0.00 100
20260905022143 26 215 0.0 0.0 0.00 0.00 0.00 100
20260905021644 26 215 0.0 0.0 0.00 0.00 0.00 100
20260905021144 26 215 0.0 0.0 0.00 0.00 0.00 100
20260905020644 26 215 0.0 0.0 0.00 0.00 0.00 100
20260905013144 27 215 0.0 0.0 0.00 0.00 0.00 100
20260905012644 27 215 0.0 0.0 0.00 0.00 0.00 100
20260905012143 27 215 0.0 0.0 0.00 0.00 0.00 100
20260905011644 27 215 0.0 0.0 0.00 0.00 0.00 100
20260905010644 27 215 0.0 0.0 0.00 0.00 0.00 100
20260905005644 28 215 0.0 0.0 0.00 0.00 0.00 100
20260905005144 28 215 0.0 0.0 0.00 0.00 0.00 100
20260905004644 28 215 0.0 0.0 0.00 0.00 0.00 100
20260905004144 28 215 0.0 0.0 0.00 0.00 0.00 100
20260905003644 28 215 0.0 0.0 0.00 0.00 0.00 100
20260905003144 28 215 0.0 0.0 0.00 0.00 0.00 100
20260905002644 29 215 0.0 0.0 0.00 0.00 0.00 99
20260905002143 29 215 0.0 0.0 0.00 0.00 0.00 99
20260905001644 30 215 0.0 0.0 0.00 0.00 0.00 98
20260905001144 30 215 0.0 0.0 0.00 0.00 0.00 98
20260905000144 31 215 0.0 0.0 0.00 0.00 0.00 96
20260904235144 31 215 0.0 0.0 0.00 0.00 0.00 95
20260904234145 32 215 0.0 0.0 0.00 0.00 0.00 91
20260904233145 33 215 0.0 0.0 0.00 0.00 0.00 81
20260904232645 34 215 0.0 0.0 0.00 0.00 0.00 79
20260904232143 35 215 0.0 0.0 0.00 0.00 0.00 77
20260904231645 35 215 0.0 0.0 0.00 0.00 0.00 75
20260904231146 35 215 0.0 4.8 0.00 0.00 0.00 73
20260904230645 35 187 0.0 3.2 0.00 0.00 0.00 72
20260904230145 35 180 0.0 4.8 0.00 0.00 0.00 70
20260904225645 36 199 0.0 3.2 0.00 0.00 0.00 70
20260904225146 36 213 3.2 6.4 0.00 0.00 0.00 70
20260904224646 36 262 0.0 4.8 0.00 0.00 0.00 71
20260904223645 36 236 4.8 6.4 0.00 0.00 0.00 70
20260904223145 36 215 1.6 6.4 0.00 0.00 0.00 69
20260904222645 36 261 3.2 8.0 0.00 0.00 0.00 70
20260904222144 36 237 1.6 8.0 0.00 0.00 0.00 69
20260904214146 35 212 1.6 6.4 0.00 0.00 0.00 69
20260904213645 35 281 0.0 8.0 0.00 0.00 0.00 69
20260904212144 35 232 3.2 8.0 0.00 0.00 0.00 70
20260904210645 36 248 0.0 8.0 0.00 0.00 0.00 68
20260904210145 36 240 0.0 12.9 0.00 0.00 0.00 68
20260904205645 36 312 4.8 11.3 0.00 0.00 0.00 64
20260904205145 36 220 4.8 9.7 0.00 0.00 0.00 67
20260904204646 36 239 9.7 9.7 0.00 0.00 0.00 66
20260904204146 36 225 0.0 12.9 0.00 0.00 0.00 65
20260904203645 36 275 6.4 9.7 0.00 0.00 0.00 66
20260904202645 36 278 6.4 9.7 0.00 0.00 0.00 65
20260904202144 36 227 3.2 12.9 0.00 0.00 0.00 67
20260904201645 36 213 8.0 14.5 0.00 0.00 0.00 68
20260904200645 36 225 4.8 11.3 0.00 0.00 0.00 69
20260904200145 35 202 8.0 9.7 0.00 0.00 0.00 70
20260904195646 35 216 6.4 12.9 0.00 0.00 0.00 70
20260904195145 35 265 6.4 14.5 0.00 0.00 0.00 70
20260904193645 35 284 3.2 9.7 0.00 0.00 0.00 71
20260904192645 35 281 6.4 11.3 0.00 0.00 0.00 70
20260904192144 36 278 6.4 12.9 0.00 0.00 0.00 69
20260904191145 35 244 1.6 11.3 0.00 0.00 0.00 70
20260904190645 35 216 0.0 12.9 0.00 0.00 0.00 70
20260904185145 35 225 6.4 12.9 0.00 0.00 0.00 74
20260904184645 35 279 9.7 16.1 0.00 0.00 0.00 71
20260904184145 35 198 11.3 14.5 0.00 0.00 0.00 73
20260904183645 35 225 4.8 12.9 0.00 0.00 0.00 73
20260904183147 34 253 4.8 14.5 0.00 0.00 0.00 73
20260904182647 34 243 4.8 16.1 0.00 0.00 0.00 75
20260904182144 34 237 9.7 12.9 0.00 0.00 0.00 75
20260904181145 34 289 4.8 14.5 0.00 0.00 0.00 75
20260904180645 34 225 11.3 14.5 0.00 0.00 0.00 78
20260904180146 33 220 3.2 17.7 0.00 0.00 0.00 78
20260904175646 33 217 3.2 14.5 0.00 0.00 0.00 78
20260904174646 33 338 3.2 12.9 0.00 0.00 0.00 80
20260904174147 33 253 4.8 14.5 0.00 0.00 0.00 80